Location: Peterborough
(44.3091°N, 78.3197°W)
Time: 03:57:40
(UTC-04:00)

Tiros 1 despin weight - Pass Details

Date: 27 March 2023
Orbit: 586 x 632 km, 48.2° (Epoch: 08 June)

Event Time Altitude Azimuth Distance (km) Brightness Sun altitude
Rises 20:39:12 0° 219° (SW) 2,795 ? -12.2°
Reaches altitude 10° 20:41:35 10° 211° (SSW) 1,898 ? -12.6°
Maximum altitude 20:45:35 36° 144° (SE) 927 ? -13.3°
Enters shadow 20:47:53 21° 91° (E) 1,333 ? -13.7°
Drops below altitude 10° 20:49:37 10° 78° (ENE) 1,916 - -14.0°
Sets 20:52:01 0° 70° (ENE) 2,825 - -14.4°
